Location: Mentone
(34.5413°N, 85.5351°W)
Time: 14:17:02
(UTC-05:00)

Transit 2A Rocket - Visible Passes

Search period start: 27 June 2017 00:00
Search period end: 07 July 2017 00:00
Orbit: 591 x 913 km, 66.7° (Epoch: 26 June)

Date Brightness Start Highest point End Pass type
(mag) Time Alt. Az. Time Alt. Az. Time Alt. Az.
27 Jun 7.2 04:05:23 10° N 04:10:13 31° ENE 04:15:21 10° ESE visible
27 Jun 7.9 20:21:17 10° W 20:24:12 17° NW 20:27:13 10° N visible
28 Jun 7.9 03:23:44 10° N 03:27:36 19° NE 03:31:37 10° E visible
29 Jun 8.3 02:43:04 10° NNE 02:44:50 11° NE 02:46:36 10° ENE visible
29 Jun 5.4 04:22:37 10° NNW 04:28:08 78° ENE 04:34:03 10° SSE visible
30 Jun 6.3 03:40:26 10° NNW 03:45:41 45° ENE 03:51:18 10° SE visible
01 Jul 7.2 02:58:31 10° N 03:03:08 27° NE 03:08:01 10° ESE visible
01 Jul 5.6 04:40:36 10° NW 04:45:49 41° WSW 04:51:21 10° S visible
02 Jul 7.8 02:17:03 10° NNE 02:20:28 16° NE 02:24:01 10° E visible
02 Jul 5.1 03:57:57 10° NNW 04:03:30 73° WSW 04:09:26 10° SSE visible
03 Jul 5.5 03:15:36 10° NNW 03:21:07 66° ENE 03:27:01 10° SE visible
03 Jul 6.7 04:59:58 10° WNW 05:03:16 16° WSW 05:06:41 10° SW visible
04 Jul 6.5 02:33:30 10° N 02:38:38 38° ENE 02:44:06 10° SE visible
04 Jul 6.1 04:16:20 10° NW 04:21:05 28° WSW 04:26:05 10° SSW visible
05 Jul 7.2 01:51:42 10° N 01:56:03 23° NE 02:00:36 10° ESE visible
05 Jul 5.4 03:33:26 10° NW 03:38:50 50° WSW 03:41:42 28° S visible
06 Jul 7.8 01:10:27 10° NNE 01:13:19 14° NE 01:16:16 10° E visible
06 Jul 5.1 02:50:53 10° NNW 02:56:30 87° WSW 02:58:17 47° SSE visible
